| time (UTC) | temp C | wind direction | speed KPH | gust KPH | rain 1hr cm | rain 24hr cm | rain mn cm | humidity % | barometer mb |
| 20260506202629 | 12 | -1 | 8.0 | 14.5 | 0.00 | 0.00 | 0.25 | 9 | 994.8 |
| 20260506202121 | 12 | -1 | 12.9 | 27.4 | 0.00 | 0.00 | 0.25 | 8 | 994.0 |
| 20260506201613 | 12 | -1 | 19.3 | 29.0 | 0.00 | 0.00 | 0.25 | 8 | 992.3 |
| 20260506201106 | 12 | -1 | 16.1 | 24.1 | 0.00 | 0.00 | 0.23 | 8 | 993.0 |
| 20260506200558 | 12 | -1 | 14.5 | 22.5 | 0.00 | 0.00 | 0.23 | 8 | 994.6 |
| 20260506200050 | 12 | -1 | 14.5 | 24.1 | 0.00 | 0.00 | 0.23 | 8 | 994.2 |
| 20260506195542 | 12 | -1 | 11.3 | 17.7 | 0.00 | 0.00 | 0.23 | 8 | 994.9 |
| 20260506195035 | 12 | -1 | 14.5 | 24.1 | 0.00 | 0.00 | 0.23 | 8 | 995.4 |
| 20260506194528 | 12 | -1 | 17.7 | 27.4 | 0.00 | 0.00 | 0.23 | 8 | 995.2 |
| 20260506194021 | 12 | -1 | 11.3 | 16.1 | 0.00 | 0.00 | 0.23 | 7 | 993.8 |
| 20260506193513 | 13 | -1 | 0.0 | 0.0 | 0.00 | 0.00 | 0.20 | 7 | 995.1 |
| 20260506193005 | 13 | -1 | 0.0 | 0.0 | 0.00 | 0.00 | 0.20 | 8 | 994.4 |
| 20260506192458 | 12 | -1 | 0.0 | 0.0 | 0.00 | 0.00 | 0.20 | 8 | 994.8 |
| 20260506191950 | 13 | -1 | 0.0 | 0.0 | 0.00 | 0.00 | 0.20 | 8 | 994.7 |
| 20260506191442 | 13 | 0 | 0.0 | 0.0 | 0.00 | 0.00 | 0.20 | 8 | 994.1 |
| 20260506190934 | 13 | -1 | 0.0 | 0.0 | 0.00 | 0.00 | 0.20 | 8 | 993.3 |
| 20260506190427 | 13 | -1 | 4.8 | 8.0 | 0.00 | 0.00 | 0.20 | 8 | 992.7 |
| 20260506185920 | 13 | 0 | 0.0 | 0.0 | 0.00 | 0.00 | 0.20 | 8 | 991.6 |
| 20260506185413 | 13 | -1 | 0.0 | 0.0 | 0.00 | 0.00 | 0.20 | 8 | 993.7 |
| 20260506184904 | 13 | -1 | 0.0 | 0.0 | 0.00 | 0.00 | 0.20 | 9 | 993.7 |
| 20260506184356 | 13 | -1 | 4.8 | 9.7 | 0.00 | 0.00 | 0.20 | 9 | 993.6 |
| 20260506183849 | 13 | -1 | 8.0 | 11.3 | 0.00 | 0.00 | 0.20 | 9 | 993.5 |
| 20260506183342 | 13 | -1 | 8.0 | 14.5 | 0.00 | 0.00 | 0.20 | 9 | 993.2 |
| 20260506182834 | 13 | -1 | 9.7 | 16.1 | 0.00 | 0.00 | 0.20 | 9 | 992.4 |
| 20260506182326 | 13 | -1 | 12.9 | 25.7 | 0.00 | 0.00 | 0.20 | 9 | 992.5 |
| 20260506181819 | 13 | -1 | 11.3 | 24.1 | 0.00 | 0.00 | 0.20 | 8 | 991.6 |
| 20260506181312 | 13 | -1 | 16.1 | 24.1 | 0.00 | 0.00 | 0.20 | 8 | 991.2 |
| 20260506180803 | 14 | -1 | 11.3 | 20.9 | 0.00 | 0.00 | 0.20 | 8 | 991.1 |
| 20260506180256 | 14 | -1 | 14.5 | 20.9 | 0.00 | 0.00 | 0.20 | 8 | 991.5 |
| 20260506175749 | 14 | -1 | 12.9 | 20.9 | 0.00 | 0.00 | 0.20 | 8 | 990.7 |
| 20260506175242 | 14 | -1 | 6.4 | 12.9 | 0.00 | 0.00 | 0.20 | 8 | 991.2 |
| 20260506174735 | 14 | -1 | 8.0 | 14.5 | 0.00 | 0.00 | 0.20 | 8 | 992.2 |
| 20260506174227 | 13 | -1 | 9.7 | 19.3 | 0.00 | 0.00 | 0.20 | 8 | 993.7 |
| 20260506173720 | 13 | -1 | 0.0 | 0.0 | 0.00 | 0.00 | 0.20 | 9 | 993.6 |
| 20260506173212 | 13 | -1 | 6.4 | 11.3 | 0.00 | 0.00 | 0.20 | 8 | 994.7 |
| 20260506172704 | 13 | -1 | 9.7 | 12.9 | 0.00 | 0.00 | 0.20 | 9 | 994.8 |
| 20260506172157 | 14 | -1 | 0.0 | 0.0 | 0.00 | 0.00 | 0.20 | 9 | 993.9 |
| 20260506171649 | 14 | -1 | 0.0 | 0.0 | 0.00 | 0.00 | 0.20 | 9 | 993.3 |
| 20260506171141 | 14 | -1 | 6.4 | 12.9 | 0.00 | 0.00 | 0.20 | 8 | 993.2 |
| 20260506170634 | 14 | -1 | 8.0 | 12.9 | 0.00 | 0.00 | 0.20 | 8 | 993.0 |
| 20260506170127 | 14 | -1 | 8.0 | 14.5 | 0.00 | 0.00 | 0.20 | 8 | 993.1 |
| 20260506165620 | 14 | -1 | 9.7 | 16.1 | 0.00 | 0.00 | 0.20 | 8 | 993.1 |
| 20260506165112 | 14 | -1 | 8.0 | 14.5 | 0.00 | 0.00 | 0.20 | 8 | 992.6 |
| 20260506164605 | 14 | -1 | 9.7 | 14.5 | 0.00 | 0.00 | 0.20 | 7 | 993.1 |
| 20260506164057 | 14 | -1 | 8.0 | 12.9 | 0.00 | 0.00 | 0.20 | 8 | 992.4 |
| 20260506163549 | 15 | -1 | 9.7 | 12.9 | 0.00 | 0.00 | 0.20 | 8 | 991.9 |
| 20260506163042 | 15 | -1 | 9.7 | 16.1 | 0.00 | 0.00 | 0.20 | 8 | 991.9 |
| 20260506162535 | 14 | -1 | 9.7 | 17.7 | 0.00 | 0.00 | 0.20 | 8 | 993.6 |
| 20260506162028 | 15 | -1 | 16.1 | 20.9 | 0.00 | 0.00 | 0.20 | 8 | 989.8 |
| 20260506161521 | 14 | -1 | 14.5 | 20.9 | 0.00 | 0.00 | 0.20 | 6 | 987.0 |
| 20260506161014 | 15 | -1 | 9.7 | 17.7 | 0.00 | 0.00 | 0.18 | 8 | 992.9 |
| 20260506160506 | 15 | -1 | 11.3 | 16.1 | 0.00 | 0.00 | 0.18 | 7 | 995.3 |
| 20260506155958 | 15 | -1 | 0.0 | 0.0 | 0.00 | 0.00 | 0.18 | 9 | 998.9 |
| 20260506155451 | 15 | -1 | 8.0 | 12.9 | 0.00 | 0.00 | 0.18 | 9 | 995.7 |
| 20260506154944 | 15 | -1 | 6.4 | 9.7 | 0.00 | 0.00 | 0.18 | 9 | 996.1 |
| 20260506154437 | 15 | -1 | 8.0 | 12.9 | 0.00 | 0.00 | 0.18 | 9 | 995.8 |
| 20260506153930 | 15 | -1 | 9.7 | 17.7 | 0.00 | 0.00 | 0.18 | 9 | 995.2 |
| 20260506153423 | 15 | -1 | 8.0 | 16.1 | 0.00 | 0.00 | 0.18 | 8 | 995.1 |
| 20260506152916 | 15 | -1 | 9.7 | 14.5 | 0.00 | 0.00 | 0.18 | 9 | 996.5 |
| 20260506152409 | 15 | -1 | 9.7 | 16.1 | 0.00 | 0.00 | 0.18 | 8 | 995.9 |
| 20260506151901 | 15 | -1 | 0.0 | 0.0 | 0.00 | 0.00 | 0.18 | 9 | 997.3 |
| 20260506151353 | 15 | -1 | 8.0 | 12.9 | 0.00 | 0.00 | 0.18 | 9 | 996.7 |
| 20260506150846 | 15 | -1 | 9.7 | 14.5 | 0.00 | 0.00 | 0.18 | 9 | 994.4 |
| 20260506150339 | 15 | -1 | 8.0 | 12.9 | 0.00 | 0.00 | 0.18 | 9 | 997.5 |
| 20260506145831 | 15 | -1 | 9.7 | 14.5 | 0.00 | 0.00 | 0.18 | 9 | 996.4 |
| 20260506145323 | 15 | -1 | 12.9 | 19.3 | 0.00 | 0.00 | 0.18 | 9 | 997.0 |
| 20260506144816 | 14 | -1 | 19.3 | 41.8 | 0.00 | 0.00 | 0.18 | 9 | 989.2 |
| 20260506144308 | 14 | -1 | 27.4 | 41.8 | 0.00 | 0.00 | 0.10 | 7 | 991.6 |
| 20260506143800 | 16 | -1 | 12.9 | 19.3 | 0.00 | 0.00 | 0.03 | 5 | 992.4 |
| 20260506143253 | 17 | -1 | 0.0 | 0.0 | 0.00 | 0.00 | 0.00 | 4 | 992.2 |
| 20260506142746 | 17 | -1 | 0.0 | 0.0 | 0.00 | 0.00 | 0.00 | 5 | 992.7 |
| 20260506142239 | 17 | -1 | 0.0 | 0.0 | 0.00 | 0.00 | 0.00 | 5 | 991.0 |
| 20260506141731 | 17 | -1 | 0.0 | 0.0 | 0.00 | 0.00 | 0.00 | 5 | 990.7 |
| 20260506141224 | 17 | -1 | 0.0 | 0.0 | 0.00 | 0.00 | 0.00 | 5 | 990.0 |
| 20260506140717 | 17 | 180 | 0.0 | 0.0 | 0.00 | 0.00 | 0.00 | 4 | 991.9 |
| 20260506140210 | 17 | 135 | 0.0 | 0.0 | 0.00 | 0.00 | 0.00 | 4 | 992.7 |
| 20260506135702 | 17 | 135 | 0.0 | 0.0 | 0.00 | 0.00 | 0.00 | 4 | 993.3 |
| 20260506135155 | 17 | 90 | 6.4 | 8.0 | 0.00 | 0.00 | 0.00 | 5 | 990.3 |
| 20260506134647 | 17 | 90 | 0.0 | 0.0 | 0.00 | 0.00 | 0.00 | 5 | 991.7 |
| 20260506134140 | 18 | 90 | 0.0 | 0.0 | 0.00 | 0.00 | 0.00 | 4 | 993.8 |
| 20260506133633 | 18 | 90 | 0.0 | 0.0 | 0.00 | 0.00 | 0.00 | 4 | 993.5 |
| 20260506133126 | 18 | 90 | 0.0 | 0.0 | 0.00 | 0.00 | 0.00 | 4 | 994.2 |
| 20260506132619 | 17 | 270 | 4.8 | 8.0 | 0.00 | 0.00 | 0.00 | 5 | 992.9 |
| 20260506132112 | 17 | 315 | 6.4 | 8.0 | 0.00 | 0.00 | 0.00 | 5 | 991.0 |
| 20260506131604 | 17 | 315 | 9.7 | 16.1 | 0.00 | 0.00 | 0.00 | 5 | 990.8 |
| 20260506131057 | 17 | 315 | 8.0 | 16.1 | 0.00 | 0.00 | 0.00 | 5 | 991.2 |
| 20260506130549 | 17 | 315 | 8.0 | 11.3 | 0.00 | 0.00 | 0.00 | 5 | 990.5 |
| 20260506130041 | 17 | 315 | 9.7 | 16.1 | 0.00 | 0.00 | 0.00 | 5 | 990.5 |
| 20260506125534 | 17 | 315 | 9.7 | 14.5 | 0.00 | 0.00 | 0.00 | 5 | 990.3 |
| 20260506125026 | 17 | 270 | 9.7 | 14.5 | 0.00 | 0.00 | 0.00 | 5 | 990.9 |
| 20260506124518 | 17 | 270 | 11.3 | 17.7 | 0.00 | 0.00 | 0.00 | 5 | 990.8 |
| 20260506124010 | 17 | -1 | 11.3 | 20.9 | 0.00 | 0.00 | 0.00 | 5 | 991.8 |
| 20260506123503 | 17 | 225 | 9.7 | 14.5 | 0.00 | 0.00 | 0.00 | 5 | 991.3 |
| 20260506122956 | 17 | -1 | 12.9 | 20.9 | 0.00 | 0.00 | 0.00 | 5 | 989.8 |
| 20260506122448 | 17 | -1 | 16.1 | 22.5 | 0.00 | 0.00 | 0.00 | 5 | 989.4 |
| 20260506121940 | 17 | 270 | 14.5 | 24.1 | 0.00 | 0.00 | 0.00 | 5 | 988.7 |
| 20260506121433 | 17 | 270 | 6.4 | 9.7 | 0.00 | 0.00 | 0.00 | 5 | 990.3 |
| 20260506120926 | 17 | 90 | 9.7 | 17.7 | 0.00 | 0.00 | 0.00 | 5 | 993.3 |
| 20260506120420 | 17 | 225 | 16.1 | 25.7 | 0.00 | 0.00 | 0.00 | 5 | 992.5 |
| 20260506115912 | 17 | -1 | 17.7 | 29.0 | 0.00 | 0.00 | 0.00 | 5 | 993.2 |
| 20260506115405 | 17 | -1 | 14.5 | 20.9 | 0.00 | 0.00 | 0.00 | 5 | 991.4 |
| 20260506114858 | 17 | 270 | 17.7 | 24.1 | 0.00 | 0.00 | 0.00 | 5 | 989.5 |
| 20260506114350 | 17 | -1 | 14.5 | 22.5 | 0.00 | 0.00 | 0.00 | 5 | 991.4 |
| 20260506113843 | 17 | 315 | 17.7 | 27.4 | 0.00 | 0.00 | 0.00 | 5 | 993.0 |
| 20260506113336 | 17 | 225 | 16.1 | 29.0 | 0.00 | 0.00 | 0.00 | 5 | 992.7 |
| 20260506112829 | 17 | 225 | 12.9 | 22.5 | 0.00 | 0.00 | 0.00 | 5 | 993.8 |
| 20260506112322 | 16 | -1 | 19.3 | 27.4 | 0.00 | 0.00 | 0.00 | 5 | 990.9 |
| 20260506111814 | 16 | 225 | 17.7 | 25.7 | 0.00 | 0.00 | 0.00 | 5 | 991.9 |
| 20260506111306 | 16 | -1 | 20.9 | 37.0 | 0.00 | 0.00 | 0.00 | 5 | 992.3 |
| 20260506110759 | 16 | -1 | 16.1 | 33.8 | 0.00 | 0.00 | 0.00 | 5 | 992.2 |
| 20260506110252 | 16 | -1 | 19.3 | 32.2 | 0.00 | 0.00 | 0.00 | 6 | 990.9 |
| 20260506105745 | 16 | 225 | 19.3 | 32.2 | 0.00 | 0.00 | 0.00 | 5 | 991.3 |
| 20260506105237 | 16 | 225 | 19.3 | 33.8 | 0.00 | 0.00 | 0.00 | 6 | 992.6 |
| 20260506104730 | 16 | 225 | 19.3 | 37.0 | 0.00 | 0.00 | 0.00 | 5 | 992.5 |
| 20260506104223 | 16 | -1 | 19.3 | 30.6 | 0.00 | 0.00 | 0.00 | 7 | 991.5 |
| 20260506103715 | 16 | 225 | 22.5 | 30.6 | 0.00 | 0.00 | 0.00 | 6 | 990.9 |
| 20260506103208 | 16 | 225 | 16.1 | 25.7 | 0.00 | 0.00 | 0.00 | 6 | 993.8 |
| 20260506102701 | 15 | -1 | 22.5 | 35.4 | 0.00 | 0.00 | 0.00 | 6 | 990.2 |
| 20260506102153 | 15 | 225 | 20.9 | 38.6 | 0.00 | 0.00 | 0.00 | 6 | 990.4 |
| 20260506101646 | 15 | 225 | 19.3 | 32.2 | 0.00 | 0.00 | 0.00 | 6 | 993.2 |
| 20260506101139 | 15 | -1 | 20.9 | 33.8 | 0.00 | 0.00 | 0.00 | 6 | 992.5 |
| 20260506100632 | 15 | 225 | 14.5 | 24.1 | 0.00 | 0.00 | 0.00 | 6 | 994.7 |
| 20260506100124 | 15 | 270 | 17.7 | 30.6 | 0.00 | 0.00 | 0.00 | 6 | 992.0 |
| 20260506095617 | 15 | -1 | 19.3 | 32.2 | 0.00 | 0.00 | 0.00 | 6 | 992.3 |
| 20260506095110 | 15 | 225 | 24.1 | 33.8 | 0.00 | 0.00 | 0.00 | 6 | 992.6 |
| 20260506094603 | 16 | -1 | 19.3 | 32.2 | 0.00 | 0.00 | 0.00 | 6 | 992.9 |
| 20260506094055 | 15 | 225 | 19.3 | 32.2 | 0.00 | 0.00 | 0.00 | 6 | 993.4 |
| 20260506093547 | 15 | 270 | 17.7 | 33.8 | 0.00 | 0.00 | 0.00 | 6 | 991.5 |
| 20260506093040 | 15 | -1 | 19.3 | 32.2 | 0.00 | 0.00 | 0.00 | 7 | 990.5 |
| 20260506092533 | 15 | 225 | 19.3 | 27.4 | 0.00 | 0.00 | 0.00 | 6 | 990.5 |
| 20260506092026 | 15 | 270 | 20.9 | 32.2 | 0.00 | 0.00 | 0.00 | 6 | 991.4 |
| 20260506091518 | 15 | 225 | 25.7 | 33.8 | 0.00 | 0.00 | 0.00 | 6 | 991.8 |
| 20260506091010 | 15 | -1 | 20.9 | 33.8 | 0.00 | 0.00 | 0.00 | 6 | 991.2 |
| 20260506090502 | 15 | 180 | 24.1 | 37.0 | 0.00 | 0.00 | 0.00 | 6 | 991.2 |
| 20260506085955 | 15 | 225 | 19.3 | 30.6 | 0.00 | 0.00 | 0.00 | 7 | 992.1 |
| 20260506085448 | 14 | 225 | 22.5 | 33.8 | 0.00 | 0.00 | 0.00 | 6 | 992.2 |
| 20260506084941 | 14 | -1 | 19.3 | 30.6 | 0.00 | 0.00 | 0.00 | 6 | 993.4 |
| 20260506084433 | 14 | -1 | 22.5 | 33.8 | 0.00 | 0.00 | 0.00 | 7 | 989.9 |
| 20260506083925 | 14 | 180 | 19.3 | 37.0 | 0.00 | 0.00 | 0.00 | 7 | 993.6 |
| 20260506083418 | 13 | -1 | 22.5 | 30.6 | 0.00 | 0.00 | 0.00 | 7 | 992.3 |
| 20260506082910 | 13 | 225 | 16.1 | 25.7 | 0.00 | 0.00 | 0.00 | 7 | 994.5 |
| 20260506082402 | 13 | 225 | 19.3 | 29.0 | 0.00 | 0.00 | 0.00 | 8 | 991.5 |
| 20260506081855 | 13 | -1 | 16.1 | 25.7 | 0.00 | 0.00 | 0.00 | 7 | 995.8 |
| 20260506081348 | 13 | -1 | 20.9 | 32.2 | 0.00 | 0.00 | 0.00 | 7 | 993.5 |
| 20260506080841 | 12 | -1 | 16.1 | 29.0 | 0.00 | 0.00 | 0.00 | 7 | 993.9 |
| 20260506080333 | 13 | 225 | 19.3 | 33.8 | 0.00 | 0.00 | 0.00 | 8 | 993.2 |
| 20260506073246 | 12 | -1 | 24.1 | 37.0 | 0.00 | 0.00 | 0.00 | 8 | 992.9 |
| 20260506072739 | 12 | 225 | 24.1 | 35.4 | 0.00 | 0.00 | 0.00 | 8 | 994.3 |
| 20260506072231 | 12 | -1 | 20.9 | 37.0 | 0.00 | 0.00 | 0.00 | 8 | 994.9 |
| 20260506071724 | 12 | -1 | 22.5 | 38.6 | 0.00 | 0.00 | 0.00 | 9 | 993.8 |
| 20260506071217 | 12 | 225 | 19.3 | 32.2 | 0.00 | 0.00 | 0.00 | 9 | 994.5 |
| 20260506070709 | 12 | -1 | 24.1 | 38.6 | 0.00 | 0.00 | 0.00 | 9 | 994.4 |
| 20260506070201 | 12 | -1 | 20.9 | 30.6 | 0.00 | 0.00 | 0.00 | 8 | 995.9 |
| 20260506062101 | 11 | 225 | 19.3 | 25.7 | 0.00 | 0.00 | 0.00 | 8 | 994.6 |
| 20260506061554 | 11 | 225 | 16.1 | 24.1 | 0.00 | 0.00 | 0.00 | 8 | 996.5 |
| 20260506061046 | 11 | -1 | 16.1 | 25.7 | 0.00 | 0.00 | 0.00 | 9 | 995.9 |
| 20260506060539 | 11 | -1 | 17.7 | 27.4 | 0.00 | 0.00 | 0.00 | 9 | 995.0 |
| 20260506050918 | 11 | 180 | 16.1 | 22.5 | 0.00 | 0.00 | 0.00 | 8 | 993.2 |
| 20260506050410 | 10 | 225 | 16.1 | 24.1 | 0.00 | 0.00 | 0.00 | 8 | 993.6 |
| 20260506044849 | 10 | 225 | 16.1 | 29.0 | 0.00 | 0.00 | 0.00 | 8 | 993.1 |
| 20260506044342 | 10 | 225 | 14.5 | 24.1 | 0.00 | 0.00 | 0.00 | 9 | 994.0 |
| 20260506043834 | 10 | 225 | 12.9 | 22.5 | 0.00 | 0.00 | 0.00 | 9 | 995.1 |
| 20260506043326 | 10 | 225 | 14.5 | 22.5 | 0.00 | 0.00 | 0.00 | 9 | 994.4 |
| 20260506042818 | 10 | 270 | 12.9 | 20.9 | 0.00 | 0.00 | 0.00 | 9 | 993.7 |
| 20260506042311 | 10 | 225 | 14.5 | 24.1 | 0.00 | 0.00 | 0.00 | 9 | 995.1 |
| 20260506041804 | 10 | 225 | 14.5 | 22.5 | 0.00 | 0.00 | 0.00 | 9 | 992.0 |
| 20260506041256 | 10 | 225 | 16.1 | 24.1 | 0.00 | 0.00 | 0.00 | 8 | 993.2 |
| 20260506040748 | 10 | 225 | 16.1 | 25.7 | 0.00 | 0.00 | 0.00 | 8 | 993.4 |
| 20260506040241 | 10 | -1 | 16.1 | 22.5 | 0.00 | 0.00 | 0.00 | 9 | 992.8 |
| 20260506035733 | 10 | 225 | 19.3 | 32.2 | 0.00 | 0.00 | 0.00 | 9 | 994.7 |
| 20260506035226 | 10 | 225 | 14.5 | 22.5 | 0.00 | 0.00 | 0.00 | 9 | 993.7 |
| 20260506034719 | 10 | 225 | 17.7 | 27.4 | 0.00 | 0.00 | 0.00 | 10 | 993.3 |
| 20260506034212 | 10 | -1 | 17.7 | 25.7 | 0.00 | 0.00 | 0.00 | 9 | 993.5 |
| 20260506033705 | 10 | 270 | 17.7 | 24.1 | 0.00 | 0.00 | 0.00 | 10 | 993.8 |
| 20260506033158 | 10 | 225 | 16.1 | 27.4 | 0.00 | 0.00 | 0.00 | 10 | 994.8 |
| 20260506032651 | 10 | 225 | 16.1 | 24.1 | 0.00 | 0.00 | 0.00 | 10 | 994.5 |
| 20260506032144 | 10 | 270 | 17.7 | 29.0 | 0.00 | 0.00 | 0.00 | 10 | 994.4 |
| 20260506031637 | 10 | 225 | 16.1 | 24.1 | 0.00 | 0.00 | 0.00 | 10 | 995.7 |
| 20260506031130 | 10 | 270 | 19.3 | 29.0 | 0.00 | 0.00 | 0.00 | 10 | 995.1 |
| 20260506030623 | 10 | 270 | 19.3 | 29.0 | 0.00 | 0.00 | 0.00 | 10 | 994.6 |
| 20260506030116 | 10 | 225 | 19.3 | 29.0 | 0.00 | 0.00 | 0.00 | 10 | 994.9 |
| 20260506025609 | 10 | -1 | 17.7 | 25.7 | 0.00 | 0.00 | 0.00 | 10 | 995.0 |
| 20260506025102 | 10 | -1 | 17.7 | 29.0 | 0.00 | 0.00 | 0.00 | 10 | 995.0 |
| 20260506024555 | 10 | -1 | 16.1 | 25.7 | 0.00 | 0.00 | 0.00 | 10 | 996.3 |
| 20260506024048 | 10 | -1 | 16.1 | 25.7 | 0.00 | 0.00 | 0.00 | 10 | 995.7 |
| 20260506023541 | 10 | -1 | 17.7 | 27.4 | 0.00 | 0.00 | 0.00 | 10 | 995.1 |
| 20260506023034 | 10 | 225 | 17.7 | 25.7 | 0.00 | 0.00 | 0.00 | 10 | 993.9 |
| 20260506022527 | 10 | 225 | 20.9 | 33.8 | 0.00 | 0.00 | 0.00 | 9 | 995.1 |
| 20260506022020 | 10 | -1 | 20.9 | 33.8 | 0.00 | 0.00 | 0.00 | 10 | 996.2 |
| 20260506021513 | 10 | -1 | 20.9 | 30.6 | 0.00 | 0.00 | 0.00 | 10 | 995.1 |
| 20260506021006 | 10 | -1 | 17.7 | 25.7 | 0.00 | 0.00 | 0.00 | 10 | 996.0 |
| 20260506020459 | 10 | -1 | 17.7 | 27.4 | 0.00 | 0.00 | 0.00 | 10 | 995.8 |
| 20260506015952 | 10 | -1 | 17.7 | 30.6 | 0.00 | 0.00 | 0.00 | 10 | 996.7 |
| 20260506015445 | 10 | 225 | 19.3 | 27.4 | 0.00 | 0.00 | 0.00 | 10 | 996.6 |
| 20260506014938 | 10 | 225 | 17.7 | 27.4 | 0.00 | 0.00 | 0.00 | 10 | 997.3 |
| 20260506014431 | 10 | -1 | 17.7 | 27.4 | 0.00 | 0.00 | 0.00 | 10 | 996.1 |
| 20260506013924 | 10 | -1 | 19.3 | 29.0 | 0.00 | 0.00 | 0.00 | 10 | 995.9 |
| 20260506013417 | 10 | -1 | 20.9 | 32.2 | 0.00 | 0.00 | 0.00 | 10 | 995.6 |
| 20260506012910 | 10 | -1 | 22.5 | 33.8 | 0.00 | 0.00 | 0.00 | 10 | 995.3 |
| 20260506012403 | 10 | -1 | 20.9 | 32.2 | 0.00 | 0.00 | 0.00 | 10 | 996.7 |
| 20260506011856 | 11 | -1 | 19.3 | 30.6 | 0.00 | 0.00 | 0.00 | 10 | 996.9 |
| 20260506011349 | 11 | -1 | 19.3 | 30.6 | 0.00 | 0.00 | 0.00 | 10 | 996.4 |
| 20260506010842 | 11 | -1 | 20.9 | 32.2 | 0.00 | 0.00 | 0.00 | 10 | 997.0 |
| 20260506010335 | 11 | -1 | 17.7 | 29.0 | 0.00 | 0.00 | 0.00 | 10 | 997.5 |
| 20260506005828 | 11 | -1 | 19.3 | 30.6 | 0.00 | 0.00 | 0.00 | 10 | 996.6 |
| 20260506005321 | 11 | -1 | 17.7 | 29.0 | 0.00 | 0.00 | 0.00 | 9 | 996.4 |
| 20260506004814 | 11 | -1 | 20.9 | 29.0 | 0.00 | 0.00 | 0.00 | 9 | 997.3 |
| 20260506004307 | 11 | -1 | 19.3 | 29.0 | 0.00 | 0.00 | 0.00 | 10 | 995.7 |
| 20260506003800 | 11 | -1 | 19.3 | 29.0 | 0.00 | 0.00 | 0.00 | 9 | 997.5 |
| 20260506003253 | 11 | -1 | 17.7 | 32.2 | 0.00 | 0.00 | 0.00 | 10 | 997.6 |
| 20260506002746 | 11 | -1 | 19.3 | 29.0 | 0.00 | 0.00 | 0.00 | 9 | 998.0 |
| 20260506002238 | 11 | -1 | 22.5 | 37.0 | 0.00 | 0.00 | 0.00 | 10 | 994.5 |
| 20260506001730 | 11 | -1 | 20.9 | 30.6 | 0.00 | 0.00 | 0.00 | 10 | 996.2 |
| 20260506001223 | 11 | -1 | 20.9 | 33.8 | 0.00 | 0.00 | 0.00 | 9 | 996.6 |
| 20260506000716 | 11 | -1 | 22.5 | 32.2 | 0.00 | 0.00 | 0.00 | 10 | 997.2 |
| 20260506000209 | 11 | -1 | 22.5 | 37.0 | 0.00 | 0.00 | 0.00 | 9 | 998.9 |
| 20260505235702 | 11 | -1 | 16.1 | 27.4 | 0.00 | 0.00 | 0.30 | 10 | 996.2 |
| 20260505235155 | 11 | -1 | 16.1 | 25.7 | 0.00 | 0.00 | 0.30 | 9 | 998.3 |
| 20260505234648 | 11 | -1 | 16.1 | 24.1 | 0.00 | 0.00 | 0.30 | 10 | 996.5 |
| 20260505234141 | 11 | -1 | 16.1 | 20.9 | 0.00 | 0.00 | 0.30 | 9 | 994.9 |
| 20260505233634 | 11 | -1 | 17.7 | 22.5 | 0.00 | 0.00 | 0.30 | 9 | 996.4 |
| 20260505233127 | 11 | -1 | 14.5 | 19.3 | 0.00 | 0.00 | 0.30 | 9 | 995.6 |
| 20260505232620 | 11 | -1 | 14.5 | 22.5 | 0.00 | 0.00 | 0.30 | 9 | 995.4 |
| 20260505232112 | 11 | -1 | 14.5 | 19.3 | 0.00 | 0.00 | 0.30 | 8 | 995.7 |
| 20260505231605 | 11 | -1 | 16.1 | 19.3 | 0.00 | 0.00 | 0.30 | 8 | 995.0 |
| 20260505231057 | 11 | -1 | 12.9 | 17.7 | 0.00 | 0.00 | 0.30 | 8 | 994.9 |
| 20260505230549 | 11 | -1 | 9.7 | 11.3 | 0.00 | 0.00 | 0.30 | 8 | 994.4 |
| 20260505230042 | 11 | -1 | 0.0 | 0.0 | 0.00 | 0.00 | 0.30 | 8 | 994.8 |
| 20260505225535 | 11 | -1 | 0.0 | 0.0 | 0.00 | 0.00 | 0.30 | 9 | 996.4 |
| 20260505225028 | 11 | -1 | 0.0 | 0.0 | 0.00 | 0.00 | 0.30 | 9 | 997.7 |
| 20260505224521 | 11 | -1 | 0.0 | 0.0 | 0.00 | 0.00 | 0.30 | 9 | 997.3 |
| 20260505224014 | 11 | -1 | 0.0 | 0.0 | 0.00 | 0.00 | 0.30 | 9 | 997.2 |
| 20260505223506 | 11 | -1 | 0.0 | 0.0 | 0.00 | 0.00 | 0.30 | 10 | 996.1 |
| 20260505222959 | 11 | -1 | 0.0 | 0.0 | 0.00 | 0.00 | 0.30 | 10 | 995.7 |
| 20260505222452 | 11 | -1 | 0.0 | 0.0 | 0.00 | 0.00 | 0.30 | 9 | 994.5 |
| 20260505221944 | 11 | -1 | 0.0 | 0.0 | 0.00 | 0.00 | 0.30 | 9 | 996.9 |
| 20260505221437 | 11 | 0 | 0.0 | 0.0 | 0.00 | 0.00 | 0.30 | 9 | 996.4 |
| 20260505220930 | 11 | 0 | 0.0 | 0.0 | 0.00 | 0.00 | 0.30 | 9 | 995.9 |
| 20260505220422 | 11 | -1 | 0.0 | 0.0 | 0.00 | 0.00 | 0.30 | 9 | 995.9 |
| 20260505215914 | 11 | -1 | 0.0 | 0.0 | 0.00 | 0.00 | 0.30 | 9 | 996.0 |
| 20260505215406 | 11 | -1 | 0.0 | 0.0 | 0.00 | 0.00 | 0.30 | 9 | 996.1 |
| 20260505214858 | 11 | -1 | 0.0 | 0.0 | 0.00 | 0.00 | 0.30 | 9 | 996.9 |
| 20260505214350 | 11 | -1 | 0.0 | 0.0 | 0.00 | 0.00 | 0.30 | 10 | 997.5 |
| 20260505213843 | 11 | -1 | 0.0 | 0.0 | 0.00 | 0.00 | 0.30 | 10 | 995.4 |
| 20260505213336 | 11 | -1 | 0.0 | 0.0 | 0.00 | 0.00 | 0.30 | 9 | 994.2 |
| 20260505212828 | 11 | -1 | 8.0 | 12.9 | 0.00 | 0.00 | 0.30 | 8 | 995.4 |
| 20260505212320 | 11 | -1 | 6.4 | 11.3 | 0.00 | 0.00 | 0.30 | 8 | 996.6 |
| 20260505211812 | 11 | -1 | 11.3 | 19.3 | 0.00 | 0.00 | 0.30 | 10 | 996.0 |
| 20260505211305 | 11 | -1 | 16.1 | 27.4 | 0.00 | 0.00 | 0.30 | 10 | 997.0 |
| 20260505210758 | 11 | -1 | 22.5 | 35.4 | 0.00 | 0.00 | 0.30 | 10 | 996.4 |
| 20260505210251 | 11 | -1 | 25.7 | 38.6 | 0.00 | 0.00 | 0.28 | 10 | 996.1 |
| 20260505205744 | 11 | -1 | 20.9 | 27.4 | 0.00 | 0.00 | 0.28 | 10 | 998.2 |
| 20260505205237 | 11 | 0 | 17.7 | 32.2 | 0.00 | 0.00 | 0.25 | 10 | 998.1 |
| 20260505204730 | 12 | 0 | 22.5 | 35.4 | 0.00 | 0.00 | 0.25 | 10 | 997.3 |
| 20260505204223 | 12 | 0 | 22.5 | 33.8 | 0.00 | 0.00 | 0.23 | 10 | 996.7 |
| 20260505203716 | 12 | -1 | 22.5 | 30.6 | 0.00 | 0.00 | 0.20 | 9 | 996.8 |
| 20260505203209 | 12 | -1 | 22.5 | 35.4 | 0.00 | 0.00 | 0.20 | 10 | 997.5 |